AF5AA Weather Reports


Display with metric or nautical units.
time (UTC)temp
F
wind
direction
speed
MPH
gust
MPH
rain 1hr
in
rain 24hr
in
rain mn
in
humidity
%
barometer
mb
20260901205226 96 119 0.0 0.0 0.00 0.00 0.00 45 1013.0
20260901204722 95 116 0.0 0.0 0.00 0.00 0.00 49 1013.4
20260901204218 95 110 0.0 0.0 0.00 0.00 0.00 49 1013.3
20260901203713 95 79 0.0 0.0 0.00 0.00 0.00 47 1013.3
20260901203207 95 100 0.0 0.0 0.00 0.00 0.00 48 1013.7
20260901202707 96 80 1.0 1.0 0.00 0.00 0.00 46 1013.5
20260901202203 96 46 1.0 2.0 0.00 0.00 0.00 46 1013.5
20260901201658 96 121 1.0 1.0 0.00 0.00 0.00 46 1013.5
20260901201152 97 130 0.0 0.0 0.00 0.00 0.00 45 1013.7
20260901200651 98 101 0.0 1.0 0.00 0.00 0.00 44 1013.5
20260901200146 97 97 1.0 1.0 0.00 0.00 0.00 45 1013.7
20260901195643 96 65 0.0 1.0 0.00 0.00 0.00 45 1013.7
20260901195138 96 110 0.0 0.0 0.00 0.00 0.00 46 1013.7
20260901194634 97 63 1.0 2.0 0.00 0.00 0.00 45 1013.9
20260901194129 98 115 1.0 2.0 0.00 0.00 0.00 45 1013.9
20260901193624 97 156 1.0 1.0 0.00 0.00 0.00 46 1013.8
20260901193119 97 89 0.0 1.0 0.00 0.00 0.00 46 1013.8
20260901192614 97 109 1.0 1.0 0.00 0.00 0.00 46 1013.9
20260901192109 97 138 1.0 1.0 0.00 0.00 0.00 47 1014.0
20260901191605 96 111 0.0 0.0 0.00 0.00 0.00 47 1014.1
20260901191101 95 152 0.0 1.0 0.00 0.00 0.00 48 1014.1
20260901190556 96 71 2.0 3.0 0.00 0.00 0.00 47 1014.3
20260901190055 95 113 0.0 0.0 0.00 0.00 0.00 50 1014.4
20260901185554 95 89 0.0 0.0 0.00 0.00 0.00 50 1014.6
20260901185053 96 84 0.0 0.0 0.00 0.00 0.00 48 1014.5
20260901184548 96 120 0.0 0.0 0.00 0.00 0.00 49 1014.3
20260901184043 95 96 1.0 1.0 0.00 0.00 0.00 51 1014.5
20260901183538 95 65 1.0 1.0 0.00 0.00 0.00 50 1014.6
20260901183033 94 93 1.0 1.0 0.00 0.00 0.00 52 1014.7
20260901182530 93 114 0.0 0.0 0.00 0.00 0.00 51 1014.8
20260901182024 94 110 0.0 0.0 0.00 0.00 0.00 51 1015.3
20260901181523 94 90 1.0 1.0 0.00 0.00 0.00 51 1015.3
20260901181023 94 110 0.0 0.0 0.00 0.00 0.00 53 1015.1
20260901180521 94 59 0.0 0.0 0.00 0.00 0.00 52 1015.2
20260901180017 95 104 0.0 0.0 0.00 0.00 0.00 51 1015.4
20260901175510 96 132 2.0 3.0 0.00 0.00 0.00 49 1015.4
20260901175005 95 74 0.0 0.0 0.00 0.00 0.00 50 1015.5
20260901174501 95 158 0.0 0.0 0.00 0.00 0.00 49 1015.4
20260901173956 94 167 0.0 0.0 0.00 0.00 0.00 52 1015.7
20260901173451 94 110 1.0 1.0 0.00 0.00 0.00 52 1015.7
20260901172948 95 83 0.0 1.0 0.00 0.00 0.00 51 1015.8
20260901172443 94 167 3.0 3.0 0.00 0.00 0.00 51 1016.0
20260901171941 94 75 0.0 1.0 0.00 0.00 0.00 53 1016.1
20260901171439 93 121 0.0 0.0 0.00 0.00 0.00 53 1016.0
20260901170938 92 127 1.0 1.0 0.00 0.00 0.00 57 1016.1
20260901170433 92 113 0.0 0.0 0.00 0.00 0.00 56 1016.3
20260901165932 93 85 0.0 0.0 0.00 0.00 0.00 55 1016.2
20260901165428 93 100 0.0 0.0 0.00 0.00 0.00 56 1016.6
20260901164924 92 77 0.0 0.0 0.00 0.00 0.00 59 1016.5
20260901164424 90 137 1.0 1.0 0.00 0.00 0.00 60 1016.6
20260901163920 90 109 0.0 0.0 0.00 0.00 0.00 60 1016.6
20260901163414 91 95 0.0 0.0 0.00 0.00 0.00 59 1016.7
20260901162908 91 89 0.0 1.0 0.00 0.00 0.00 59 1016.7
20260901162408 90 134 0.0 0.0 0.00 0.00 0.00 61 1016.5
20260901161902 90 81 0.0 0.0 0.00 0.00 0.00 62 1016.5
20260901161401 90 107 0.0 0.0 0.00 0.00 0.00 61 1016.5
20260901160856 89 106 0.0 0.0 0.00 0.00 0.00 63 1016.6
20260901160353 89 145 0.0 1.0 0.00 0.00 0.00 62 1016.8
20260901155852 90 151 1.0 1.0 0.00 0.00 0.00 61 1016.6
20260901155347 90 128 0.0 0.0 0.00 0.00 0.00 61 1016.9
20260901154843 90 100 0.0 0.0 0.00 0.00 0.00 61 1016.9
20260901154342 90 110 1.0 1.0 0.00 0.00 0.00 61 1016.9
20260901153837 89 102 0.0 0.0 0.00 0.00 0.00 61 1016.8
20260901153332 89 90 0.0 0.0 0.00 0.00 0.00 62 1016.9
20260901152831 89 111 0.0 0.0 0.00 0.00 0.00 62 1016.8
20260901152330 89 96 0.0 0.0 0.00 0.00 0.00 63 1016.7
20260901151826 88 239 1.0 1.0 0.00 0.00 0.00 63 1016.5
20260901151320 88 76 1.0 1.0 0.00 0.00 0.00 67 1016.9
20260901150820 87 67 0.0 1.0 0.00 0.00 0.00 67 1016.8
20260901150317 87 108 0.0 0.0 0.00 0.00 0.00 71 1016.8
20260901145810 87 99 0.0 0.0 0.00 0.00 0.00 71 1016.8
20260901145309 86 105 0.0 0.0 0.00 0.00 0.00 70 1016.6
20260901144805 86 133 0.0 0.0 0.00 0.00 0.00 70 1016.8
20260901144301 86 100 0.0 0.0 0.00 0.00 0.00 72 1016.8
20260901143756 85 123 0.0 0.0 0.00 0.00 0.00 71 1016.9
20260901143252 85 131 0.0 0.0 0.00 0.00 0.00 73 1017.0
20260901142749 84 106 0.0 0.0 0.00 0.00 0.00 74 1016.9
20260901142247 84 110 0.0 0.0 0.00 0.00 0.00 76 1016.8
20260901141743 83 116 0.0 0.0 0.00 0.00 0.00 78 1017.0
20260901141242 82 116 0.0 0.0 0.00 0.00 0.00 80 1017.1
20260901140742 81 115 0.0 0.0 0.00 0.00 0.00 82 1016.9
20260901140240 80 94 0.0 0.0 0.00 0.00 0.00 83 1017.1
20260901135735 79 121 0.0 0.0 0.00 0.00 0.00 84 1017.1
20260901135230 79 105 0.0 0.0 0.00 0.00 0.00 84 1017.1
20260901134726 78 104 0.0 0.0 0.00 0.00 0.00 84 1017.3
20260901134226 78 106 0.0 0.0 0.00 0.00 0.00 86 1017.3
20260901133725 77 106 0.0 0.0 0.00 0.00 0.00 85 1017.3
20260901133224 76 108 0.0 0.0 0.00 0.00 0.00 86 1017.0
20260901132723 76 108 0.0 0.0 0.00 0.00 0.00 87 1017.1
20260901132218 75 108 0.0 0.0 0.00 0.00 0.00 87 1017.1
20260901131713 75 108 0.0 0.0 0.00 0.00 0.00 88 1017.3
20260901131212 75 108 0.0 0.0 0.00 0.00 0.00 88 1017.1
20260901130708 75 108 0.0 0.0 0.00 0.00 0.00 88 1017.1
20260901130207 74 108 0.0 0.0 0.00 0.00 0.00 89 1017.0
20260901125705 74 109 0.0 0.0 0.00 0.00 0.00 90 1017.0
20260901125200 73 110 0.0 0.0 0.00 0.00 0.00 90 1017.0
20260901124655 73 110 0.0 0.0 0.00 0.00 0.00 90 1016.7
20260901124149 73 110 0.0 0.0 0.00 0.00 0.00 90 1016.6
20260901123643 73 110 0.0 0.0 0.00 0.00 0.00 90 1016.8
20260901123143 73 110 0.0 0.0 0.00 0.00 0.00 90 1016.8
20260901122642 73 110 0.0 0.0 0.00 0.00 0.00 90 1016.6
20260901122137 73 110 0.0 0.0 0.00 0.00 0.00 90 1016.6
20260901121632 73 111 0.0 0.0 0.00 0.00 0.00 89 1016.5
20260901121127 73 109 0.0 0.0 0.00 0.00 0.00 90 1016.5
20260901120627 73 109 0.0 0.0 0.00 0.00 0.00 90 1016.6
20260901120122 73 105 0.0 0.0 0.00 0.00 0.00 90 1016.2
20260901115617 73 105 0.0 0.0 0.00 0.00 0.00 90 1016.1
20260901115114 73 105 0.0 0.0 0.00 0.00 0.00 90 1016.3
20260901114610 73 105 0.0 0.0 0.00 0.00 0.00 90 1016.2
20260901114109 73 105 0.0 0.0 0.00 0.00 0.00 90 1016.3
20260901113608 73 105 0.0 0.0 0.00 0.00 0.00 90 1016.0
20260901113103 73 105 0.0 0.0 0.00 0.00 0.00 89 1016.1
20260901112603 73 108 0.0 0.0 0.00 0.00 0.00 89 1016.0
20260901112057 74 101 0.0 0.0 0.00 0.00 0.00 89 1016.2
20260901111556 74 110 0.0 0.0 0.00 0.00 0.00 88 1016.0
20260901111055 74 110 0.0 0.0 0.00 0.00 0.00 88 1016.2
20260901110551 74 110 0.0 0.0 0.00 0.00 0.00 88 1015.9
20260901110046 74 111 0.0 0.0 0.00 0.00 0.00 88 1016.0
20260901105543 74 111 0.0 0.0 0.00 0.00 0.00 88 1016.2
20260901105036 74 111 0.0 0.0 0.00 0.00 0.00 88 1015.8
20260901104533 74 111 0.0 0.0 0.00 0.00 0.00 88 1016.0
20260901104028 74 104 0.0 0.0 0.00 0.00 0.00 87 1016.1
20260901103522 74 104 0.0 0.0 0.00 0.00 0.00 88 1015.9
20260901103018 74 108 0.0 0.0 0.00 0.00 0.00 87 1016.1
20260901102518 75 108 0.0 0.0 0.00 0.00 0.00 86 1015.9
20260901102012 75 108 0.0 0.0 0.00 0.00 0.00 86 1015.9
20260901101509 75 107 0.0 0.0 0.00 0.00 0.00 85 1016.1
20260901101008 75 104 0.0 0.0 0.00 0.00 0.00 86 1015.7
20260901100503 75 104 0.0 0.0 0.00 0.00 0.00 86 1015.6
20260901100001 75 104 0.0 0.0 0.00 0.00 0.00 86 1015.7
20260901095500 75 104 0.0 0.0 0.00 0.00 0.00 86 1015.7
20260901094958 75 104 0.0 0.0 0.00 0.00 0.00 86 1015.7
20260901094453 75 99 0.0 0.0 0.00 0.00 0.00 85 1015.7
20260901093953 75 98 0.0 0.0 0.00 0.00 0.00 85 1015.9
20260901093447 75 103 0.0 0.0 0.00 0.00 0.00 85 1016.0
20260901092947 75 103 0.0 0.0 0.00 0.00 0.00 84 1015.8
20260901092443 76 103 0.0 0.0 0.00 0.00 0.00 84 1015.9
20260901091939 76 103 0.0 0.0 0.00 0.00 0.00 83 1015.9
20260901091434 76 103 0.0 0.0 0.00 0.00 0.00 83 1015.8
20260901090929 76 103 0.0 0.0 0.00 0.00 0.00 83 1015.8
20260901090429 76 103 0.0 0.0 0.00 0.00 0.00 83 1015.7
20260901085924 76 103 0.0 0.0 0.00 0.00 0.00 82 1015.9
20260901085420 76 103 0.0 0.0 0.00 0.00 0.00 82 1015.8
20260901084916 76 107 0.0 0.0 0.00 0.00 0.00 82 1015.6
20260901084412 77 113 0.0 0.0 0.00 0.00 0.00 82 1015.7
20260901083908 77 100 0.0 0.0 0.00 0.00 0.00 81 1015.9
20260901083402 77 102 0.0 0.0 0.00 0.00 0.00 81 1015.8
20260901082900 77 102 0.0 0.0 0.00 0.00 0.00 81 1016.2
20260901082355 77 102 0.0 0.0 0.00 0.00 0.00 80 1015.9
20260901081850 77 101 0.0 0.0 0.00 0.00 0.00 80 1016.0
20260901081345 77 100 0.0 0.0 0.00 0.00 0.00 80 1015.9
20260901080839 77 101 0.0 0.0 0.00 0.00 0.00 79 1015.8
20260901080334 78 98 0.0 0.0 0.00 0.00 0.00 79 1015.8
20260901075828 78 98 0.0 0.0 0.00 0.00 0.00 79 1015.8
20260901075323 78 100 0.0 0.0 0.00 0.00 0.00 78 1015.7
20260901074819 78 100 0.0 0.0 0.00 0.00 0.00 78 1015.9
20260901074313 78 100 0.0 0.0 0.00 0.00 0.00 77 1015.6
20260901073808 78 100 0.0 0.0 0.00 0.00 0.00 77 1015.6
20260901073304 78 99 0.0 0.0 0.00 0.00 0.00 77 1015.8
20260901072800 78 102 0.0 0.0 0.00 0.00 0.00 77 1016.0
20260901072300 79 104 0.0 0.0 0.00 0.00 0.00 77 1015.7
20260901071755 79 104 0.0 0.0 0.00 0.00 0.00 76 1015.8
20260901071253 79 108 0.0 0.0 0.00 0.00 0.00 76 1015.9
20260901070752 79 100 0.0 0.0 0.00 0.00 0.00 75 1015.8
20260901070248 79 100 0.0 0.0 0.00 0.00 0.00 75 1015.7
20260901065747 79 102 0.0 0.0 0.00 0.00 0.00 75 1015.7
20260901065243 79 104 0.0 0.0 0.00 0.00 0.00 74 1016.0
20260901064739 79 105 0.0 0.0 0.00 0.00 0.00 74 1015.8
20260901064235 79 107 0.0 0.0 0.00 0.00 0.00 74 1015.9
20260901063732 79 103 0.0 0.0 0.00 0.00 0.00 74 1015.8
20260901063227 79 103 0.0 0.0 0.00 0.00 0.00 74 1015.9
20260901062724 79 107 0.0 0.0 0.00 0.00 0.00 75 1015.9
20260901062219 79 107 0.0 0.0 0.00 0.00 0.00 74 1015.9
20260901061715 79 107 0.0 0.0 0.00 0.00 0.00 74 1015.7
20260901061214 79 107 0.0 0.0 0.00 0.00 0.00 74 1015.7
20260901060710 79 107 0.0 0.0 0.00 0.00 0.00 74 1015.6
20260901060205 80 104 0.0 0.0 0.00 0.00 0.00 74 1015.6
20260901055700 80 104 0.0 0.0 0.00 0.00 0.00 73 1015.6
20260901055157 80 104 0.0 0.0 0.00 0.00 0.00 73 1015.5
20260901054654 80 104 0.0 0.0 0.00 0.00 0.00 73 1015.6
20260901054150 80 104 0.0 0.0 0.00 0.00 0.00 73 1015.2
20260901053646 80 104 0.0 0.0 0.00 0.00 0.00 73 1015.2
20260901053141 80 104 0.0 0.0 0.00 0.00 0.00 72 1015.2
20260901052636 80 104 0.0 0.0 0.00 0.00 0.00 72 1015.3
20260901052132 80 104 0.0 0.0 0.00 0.00 0.00 72 1015.2
20260901051631 80 104 0.0 0.0 0.00 0.00 0.00 72 1015.2
20260901051130 80 104 0.0 0.0 0.00 0.00 0.00 71 1015.0
20260901050626 81 104 0.0 0.0 0.00 0.00 0.00 71 1015.3
20260901050121 81 100 0.0 0.0 0.00 0.00 0.00 71 1015.0
20260901045615 81 100 0.0 0.0 0.00 0.00 0.00 71 1015.1
20260901045110 81 99 0.0 0.0 0.00 0.00 0.00 70 1015.0
20260901044606 81 99 0.0 0.0 0.00 0.00 0.00 69 1014.8
20260901044102 81 99 0.0 0.0 0.00 0.00 0.00 69 1014.9
20260901043557 81 99 0.0 0.0 0.00 0.00 0.00 70 1015.0
20260901043053 81 104 0.0 0.0 0.00 0.00 0.00 71 1014.9
20260901042552 81 106 0.0 0.0 0.00 0.00 0.00 70 1014.9
20260901042048 81 106 0.0 0.0 0.00 0.00 0.00 74 1014.9
20260901041542 81 106 0.0 0.0 0.00 0.00 0.00 70 1014.8
20260901041037 81 106 0.0 0.0 0.00 0.00 0.00 71 1014.7
20260901040536 80 106 0.0 0.0 0.00 0.00 0.00 72 1014.8
20260901040031 79 108 0.0 0.0 0.00 0.00 0.00 75 1014.7
20260901035529 79 108 0.0 0.0 0.00 0.00 0.00 80 1014.8
20260901035027 79 108 0.0 0.0 0.00 0.00 0.00 81 1014.8
20260901034522 80 109 0.0 0.0 0.00 0.00 0.00 77 1014.7
20260901034017 84 102 0.0 0.0 0.00 0.00 0.00 72 1014.6
20260901033516 84 96 0.0 0.0 0.00 0.00 0.00 64 1014.5
20260901033016 84 94 0.0 0.0 0.00 0.00 0.00 64 1014.7
20260901032509 84 94 0.0 0.0 0.00 0.00 0.00 63 1014.5
20260901032004 85 92 0.0 0.0 0.00 0.00 0.00 63 1014.6
20260901031500 85 98 0.0 0.0 0.00 0.00 0.00 62 1014.5
20260901030954 85 100 0.0 0.0 0.00 0.00 0.00 62 1014.4
20260901030450 85 102 0.0 0.0 0.00 0.00 0.00 62 1014.5
20260901025948 85 102 0.0 0.0 0.00 0.00 0.00 62 1014.3
20260901025444 86 102 0.0 0.0 0.00 0.00 0.00 61 1014.4
20260901024943 86 103 0.0 0.0 0.00 0.00 0.00 61 1014.4
20260901024438 86 103 0.0 0.0 0.00 0.00 0.00 61 1014.0
20260901023936 86 103 0.0 0.0 0.00 0.00 0.00 61 1014.3
20260901023431 86 103 0.0 0.0 0.00 0.00 0.00 61 1014.0
20260901022926 86 102 0.0 0.0 0.00 0.00 0.00 61 1014.1
20260901022422 86 102 0.0 0.0 0.00 0.00 0.00 60 1013.9
20260901021917 87 102 0.0 0.0 0.00 0.00 0.00 62 1014.2
20260901021413 87 102 0.0 0.0 0.00 0.00 0.00 58 1014.1
20260901020908 87 102 0.0 0.0 0.00 0.00 0.00 57 1014.0
20260901020403 87 101 0.0 0.0 0.00 0.00 0.00 57 1014.0
20260901015902 87 100 0.0 0.0 0.00 0.00 0.00 57 1014.0
20260901015359 88 97 0.0 0.0 0.00 0.00 0.00 56 1013.9
20260901014858 88 99 0.0 0.0 0.00 0.00 0.00 56 1013.7
20260901014354 88 100 0.0 0.0 0.00 0.00 0.00 56 1013.8
20260901013849 88 100 0.0 0.0 0.00 0.00 0.00 56 1013.7
20260901013345 88 100 0.0 0.0 0.00 0.00 0.00 56 1013.8
20260901012841 89 101 0.0 0.0 0.00 0.00 0.00 56 1013.6
20260901012335 89 99 0.0 0.0 0.00 0.00 0.00 54 1013.7
20260901011830 89 100 0.0 0.0 0.00 0.00 0.00 54 1013.9
20260901011326 90 101 0.0 0.0 0.00 0.00 0.00 53 1013.8
20260901010819 90 102 0.0 0.0 0.00 0.00 0.00 52 1013.5
20260901010314 91 102 0.0 0.0 0.00 0.00 0.00 51 1013.6
20260901005813 91 102 0.0 0.0 0.00 0.00 0.00 51 1013.5
20260901005309 92 102 0.0 0.0 0.00 0.00 0.00 49 1013.5
20260901004809 92 101 0.0 0.0 0.00 0.00 0.00 49 1013.5
20260901004303 93 103 0.0 0.0 0.00 0.00 0.00 47 1013.6
20260901003803 93 103 0.0 0.0 0.00 0.00 0.00 47 1013.4
20260901003257 93 99 0.0 0.0 0.00 0.00 0.00 46 1013.5
20260901002751 93 97 0.0 0.0 0.00 0.00 0.00 46 1013.4
20260901002246 93 96 0.0 1.0 0.00 0.00 0.00 45 1013.5
20260901001741 93 94 0.0 0.0 0.00 0.00 0.00 45 1013.2
20260901001237 93 100 0.0 0.0 0.00 0.00 0.00 45 1013.4
20260901000732 93 102 0.0 0.0 0.00 0.00 0.00 45 1012.9
20260901000226 93 96 0.0 0.0 0.00 0.00 0.00 45 1013.3
20260831235720 94 107 0.0 0.0 0.00 0.00 0.00 44 1013.0
20260831235216 94 104 0.0 0.0 0.00 0.00 0.00 44 1013.1
20260831234715 94 107 0.0 0.0 0.00 0.00 0.00 44 1013.1
20260831234210 95 108 0.0 0.0 0.00 0.00 0.00 43 1013.1
20260831233706 95 102 0.0 0.0 0.00 0.00 0.00 42 1012.9
20260831233201 95 104 0.0 0.0 0.00 0.00 0.00 41 1013.4
20260831232701 96 104 0.0 0.0 0.00 0.00 0.00 41 1013.2
20260831232157 96 98 0.0 0.0 0.00 0.00 0.00 40 1013.0
20260831231653 97 94 0.0 0.0 0.00 0.00 0.00 39 1013.1
20260831231149 97 66 1.0 1.0 0.00 0.00 0.00 39 1013.1
20260831230644 98 91 0.0 0.0 0.00 0.00 0.00 38 1013.1
20260831230139 98 88 0.0 0.0 0.00 0.00 0.00 38 1013.0
20260831225638 98 85 0.0 0.0 0.00 0.00 0.00 38 1012.9
20260831225134 98 84 0.0 1.0 0.00 0.00 0.00 38 1013.0
20260831224629 98 114 0.0 0.0 0.00 0.00 0.00 38 1013.0
20260831224124 98 129 0.0 1.0 0.00 0.00 0.00 37 1013.0
20260831223619 98 109 0.0 0.0 0.00 0.00 0.00 38 1013.1
20260831223116 98 115 0.0 1.0 0.00 0.00 0.00 37 1013.0
20260831222611 98 110 1.0 1.0 0.00 0.00 0.00 38 1013.1
20260831222112 98 105 0.0 1.0 0.00 0.00 0.00 38 1013.2
20260831221607 99 105 0.0 0.0 0.00 0.00 0.00 36 1013.3
20260831221102 99 118 0.0 0.0 0.00 0.00 0.00 36 1013.4
20260831220556 99 111 0.0 0.0 0.00 0.00 0.00 36 1013.2
20260831220052 99 117 1.0 1.0 0.00 0.00 0.00 37 1013.3
20260831215548 99 135 0.0 0.0 0.00 0.00 0.00 36 1013.4
20260831215043 100 114 0.0 0.0 0.00 0.00 0.00 36 1013.4
20260831214541 99 98 0.0 1.0 0.00 0.00 0.00 37 1013.6
20260831214036 100 58 1.0 1.0 0.00 0.00 0.00 36 1013.5
20260831213533 100 54 0.0 0.0 0.00 0.00 0.00 36 1013.6
20260831213028 100 105 0.0 1.0 0.00 0.00 0.00 36 1013.6
20260831212524 99 37 0.0 1.0 0.00 0.00 0.00 36 1013.7
20260831212019 100 342 1.0 1.0 0.00 0.00 0.00 36 1013.6
20260831211514 100 110 0.0 0.0 0.00 0.00 0.00 36 1013.7
20260831211013 99 105 1.0 1.0 0.00 0.00 0.00 37 1013.8
20260831210508 100 105 1.0 1.0 0.00 0.00 0.00 36 1013.7
20260831210005 100 104 1.0 1.0 0.00 0.00 0.00 37 1013.9
20260831205459 100 99 0.0 0.0 0.00 0.00 0.00 37 1013.8